FW2491 Weather Reports


Display with metric or nautical units.
time (UTC)temp
F
wind
direction
speed
MPH
gust
MPH
rain 1hr
in
rain 24hr
in
rain mn
in
humidity
%
barometer
mb
20260906090030 70 355 3.0 6.0 0.00 0.00 0.00 34 1010.9
20260906084530 70 355 3.0 5.0 0.00 0.00 0.00 34 1010.8
20260906083028 70 348 4.0 5.0 0.00 0.00 0.00 34 1010.9
20260906081544 70 314 4.0 5.0 0.00 0.00 0.00 32 1010.9
20260906080027 70 336 2.0 5.0 0.00 0.00 0.00 31 1010.7
20260906074527 70 333 3.0 5.0 0.00 0.00 0.00 32 1010.6
20260906073044 69 311 3.0 5.0 0.00 0.00 0.00 35 1010.7
20260906071524 70 311 2.0 3.0 0.00 0.00 0.00 35 1010.7
20260906070035 70 311 3.0 5.0 0.00 0.00 0.00 35 1010.7
20260906064522 70 310 2.0 5.0 0.00 0.00 0.00 35 1010.8
20260906063022 70 309 2.0 5.0 0.00 0.00 0.00 36 1010.9
20260906061519 70 302 3.0 5.0 0.00 0.00 0.00 37 1011.1
20260906060017 70 319 3.0 5.0 0.00 0.00 0.00 37 1011.3
20260906054520 70 317 3.0 5.0 0.00 0.00 0.00 38 1011.6
20260906053012 70 314 4.0 5.0 0.00 0.00 0.00 37 1011.9
20260906051519 71 327 1.0 4.0 0.00 0.00 0.00 37 1012.2
20260906050011 71 329 3.0 4.0 0.00 0.00 0.00 37 1012.1
20260906044512 71 329 3.0 4.0 0.00 0.00 0.00 37 1012.0
20260906043009 71 345 1.0 6.0 0.00 0.00 0.00 38 1011.9
20260906041507 71 10 4.0 6.0 0.00 0.00 0.00 37 1011.8
20260906040004 71 284 3.0 4.0 0.00 0.00 0.00 31 1011.9
20260906034503 71 298 3.0 5.0 0.00 0.00 0.00 31 1012.2
20260906033004 71 122 3.0 6.0 0.00 0.00 0.00 34 1012.4
20260906031501 71 299 4.0 5.0 0.00 0.00 0.00 44 1011.9
20260906030002 71 346 2.0 5.0 0.00 0.00 0.00 46 1011.7
20260906024600 71 313 3.0 5.0 0.00 0.00 0.00 47 1011.5
20260906023128 72 355 4.0 5.0 0.00 0.00 0.00 46 1011.8
20260906021600 71 272 3.0 8.0 0.00 0.00 0.00 54 1011.9
20260906020059 72 336 2.0 4.0 0.00 0.00 0.00 55 1011.8
20260906014626 72 336 1.0 3.0 0.00 0.00 0.00 57 1011.9
20260906013100 73 336 0.0 3.0 0.00 0.00 0.00 57 1011.6
20260906011559 73 333 2.0 5.0 0.00 0.00 0.00 57 1011.4
20260906010057 73 333 2.0 5.0 0.00 0.00 0.00 58 1011.0
20260906004608 73 355 2.0 4.0 0.00 0.00 0.00 58 1011.0
20260906003057 74 355 2.0 5.0 0.00 0.00 0.00 58 1010.8
20260906001554 74 355 2.0 4.0 0.00 0.00 0.00 59 1010.5
20260906000106 75 355 3.0 5.0 0.00 0.00 0.00 63 1010.7
20260905234600 76 238 1.0 3.0 0.00 0.00 0.00 63 1010.9
20260905233056 76 333 1.0 3.0 0.00 0.00 0.00 63 1010.8
20260905231555 76 334 3.0 5.0 0.00 0.00 0.00 62 1010.9
20260905230055 77 344 1.0 4.0 0.00 0.00 0.00 62 1010.6
20260905224603 77 344 3.0 5.0 0.00 0.00 0.00 61 1010.5
20260905223053 77 344 0.0 3.0 0.00 0.00 0.00 62 1010.6
20260905221550 76 12 3.0 6.0 0.00 0.00 0.00 62 1010.4
20260905220049 76 39 4.0 9.0 0.00 0.00 0.00 62 1011.1
20260905214548 78 80 3.0 10.0 0.00 0.00 0.00 61 1011.0
20260905213048 78 47 3.0 5.0 0.00 0.00 0.00 59 1010.8
20260905211547 78 25 2.0 6.0 0.00 0.00 0.00 59 1010.7
20260905210045 79 306 4.0 6.0 0.00 0.00 0.00 56 1010.8
20260905204545 79 286 0.0 4.0 0.00 0.00 0.00 56 1011.3
20260905203044 79 344 3.0 11.0 0.00 0.00 0.00 54 1011.3
20260905201644 81 332 6.0 12.0 0.00 0.00 0.00 51 1011.5
20260905200050 79 25 13.0 22.0 0.00 0.00 0.00 55 1011.1
20260905194541 78 355 14.0 22.0 0.00 0.00 0.00 54 1012.0
20260905193042 81 30 16.0 23.0 0.00 0.00 0.00 54 1012.0
20260905191541 84 32 10.0 21.0 0.00 0.00 0.00 53 1011.9
20260905190049 88 340 2.0 4.0 0.00 0.00 0.00 46 1011.5
20260905184552 89 340 0.0 3.0 0.00 0.00 0.00 44 1011.2
20260905183045 90 340 0.0 6.0 0.00 0.00 0.00 41 1011.2
20260905181537 91 88 0.0 9.0 0.00 0.00 0.00 37 1011.4
20260905180034 92 98 2.0 7.0 0.00 0.00 0.00 43 1011.6
20260905174532 91 105 2.0 8.0 0.00 0.00 0.00 42 1011.8
20260905173031 91 101 4.0 7.0 0.00 0.00 0.00 43 1011.9
20260905171531 91 67 2.0 5.0 0.00 0.00 0.00 48 1011.9
20260905170026 90 98 3.0 7.0 0.00 0.00 0.00 49 1011.9
20260905164529 90 239 0.0 8.0 0.00 0.00 0.00 49 1012.3
20260905163019 89 346 1.0 8.0 0.00 0.00 0.00 46 1012.7
20260905161516 89 265 3.0 7.0 0.00 0.00 0.00 46 1012.7
20260905160015 88 269 1.0 5.0 0.00 0.00 0.00 48 1012.7
20260905154513 88 309 1.0 5.0 0.00 0.00 0.00 49 1012.9
20260905153012 87 262 2.0 3.0 0.00 0.00 0.00 50 1013.0
20260905151506 85 316 1.0 6.0 0.00 0.00 0.00 52 1013.1
20260905150003 84 9 3.0 5.0 0.00 0.00 0.00 56 1013.0
20260905144601 83 308 4.0 8.0 0.00 0.00 0.00 55 1013.0
20260905143056 82 304 4.0 8.0 0.00 0.00 0.00 56 1013.0
20260905141557 81 301 3.0 8.0 0.00 0.00 0.00 57 1013.3
20260905140057 80 306 4.0 10.0 0.00 0.00 0.00 57 1013.5
20260905134546 79 306 4.0 10.0 0.00 0.01 0.00 56 1013.7
20260905133042 78 300 8.0 12.0 0.00 0.01 0.00 54 1013.9
20260905131556 76 296 5.0 8.0 0.00 0.01 0.00 53 1013.9
20260905130046 75 312 6.0 8.0 0.00 0.01 0.00 51 1013.7
20260905124539 74 302 6.0 8.0 0.00 0.01 0.00 48 1013.6
20260905123037 73 302 4.0 5.0 0.00 0.01 0.00 42 1013.7
20260905121539 72 312 2.0 4.0 0.00 0.01 0.00 33 1013.6
20260905120041 72 321 2.0 4.0 0.00 0.01 0.00 31 1013.5
20260905114536 71 320 2.0 5.0 0.00 0.01 0.00 31 1013.3
20260905113036 71 318 2.0 4.0 0.00 0.01 0.00 32 1013.0
20260905111554 71 318 2.0 4.0 0.00 0.01 0.00 32 1012.9
20260905110035 70 311 3.0 5.0 0.00 0.01 0.00 32 1012.7
20260905104532 70 305 3.0 4.0 0.00 0.01 0.00 32 1012.7
20260905103030 71 303 2.0 4.0 0.00 0.01 0.00 44 1012.6
20260905101528 71 304 3.0 4.0 0.00 0.01 0.00 44 1012.5
20260905100026 72 305 2.0 4.0 0.00 0.01 0.00 44 1012.4
20260905094526 72 305 3.0 4.0 0.00 0.01 0.00 44 1012.4
20260905093024 72 305 2.0 4.0 0.00 0.01 0.00 44 1012.6
20260905091524 71 305 2.0 5.0 0.00 0.01 0.00 45 1012.4